FW5908 Weather Reports


time (UTC)temp
F
wind
direction
speed
knots
gust
knots
rain 1hr
in
rain 24hr
in
rain mn
in
humidity
%
barometer
mb
20260507153616 61 241 4.3 8.7 0.00 0.00 0.00 49 1013.9
20260507152615 60 188 1.7 8.7 0.00 0.00 0.00 51 1014.0
20260507151615 59 233 1.7 10.4 0.00 0.00 0.00 54 1014.2
20260507150616 58 188 3.5 10.4 0.00 0.00 0.00 55 1014.2
20260507145615 57 207 3.5 9.6 0.00 0.00 0.00 58 1014.3
20260507144616 56 229 1.7 7.8 0.00 0.00 0.00 59 1014.5
20260507143616 55 244 2.6 6.1 0.00 0.00 0.00 61 1014.5
20260507142615 54 234 1.7 7.8 0.00 0.00 0.00 62 1014.6
20260507141615 53 211 3.5 7.8 0.00 0.00 0.00 64 1014.6
20260507140615 52 221 7.8 7.8 0.00 0.00 0.00 65 1014.7
20260507135615 52 214 2.6 7.0 0.00 0.00 0.00 68 1014.8
20260507134615 50 215 1.7 6.1 0.00 0.00 0.00 70 1014.8
20260507133615 50 209 2.6 9.6 0.00 0.00 0.00 70 1014.8
20260507132615 49 265 2.6 10.4 0.00 0.00 0.00 72 1014.7
20260507131615 48 254 2.6 9.6 0.00 0.00 0.00 73 1014.8
20260507130615 47 208 2.6 8.7 0.00 0.00 0.00 74 1015.0
20260507125615 46 180 3.5 7.8 0.00 0.00 0.00 76 1015.1
20260507124615 45 212 2.6 7.8 0.00 0.00 0.00 76 1015.0
20260507123615 45 227 3.5 5.2 0.00 0.00 0.00 77 1015.0
20260507122615 44 234 1.7 7.0 0.00 0.00 0.00 77 1015.2
20260507121615 44 212 2.6 6.1 0.00 0.00 0.00 77 1015.2
20260507120615 44 216 1.7 5.2 0.00 0.00 0.00 77 1015.2
20260507115615 44 208 2.6 5.2 0.00 0.00 0.00 77 1015.0
20260507114615 44 199 4.3 5.2 0.00 0.00 0.00 77 1015.1
20260507113615 44 241 2.6 6.1 0.00 0.00 0.00 76 1015.1
20260507112615 44 227 1.7 4.3 0.00 0.00 0.00 76 1015.1
20260507111615 44 237 1.7 7.0 0.00 0.00 0.00 75 1015.0
20260507110615 44 254 1.7 4.3 0.00 0.00 0.00 75 1014.9
20260507105615 44 220 3.5 7.8 0.00 0.00 0.00 74 1014.8
20260507104615 44 203 2.6 8.7 0.00 0.00 0.00 74 1014.7
20260507103615 44 217 1.7 6.1 0.00 0.00 0.00 74 1014.8
20260507102615 44 219 1.7 6.1 0.00 0.00 0.00 73 1014.9
20260507101615 44 229 0.9 5.2 0.00 0.00 0.00 73 1014.9
20260507100615 44 240 1.7 4.3 0.00 0.00 0.00 72 1014.9
20260507095615 44 195 0.9 4.3 0.00 0.00 0.00 72 1015.1
20260507094615 45 212 0.9 5.2 0.00 0.00 0.00 71 1015.1
20260507093615 45 228 1.7 4.3 0.00 0.00 0.00 71 1015.4
20260507092615 45 223 1.7 3.5 0.00 0.00 0.00 70 1015.4
20260507091615 45 234 2.6 4.3 0.00 0.00 0.00 69 1015.5
20260507090615 45 215 2.6 4.3 0.00 0.00 0.00 68 1015.6
20260507085615 44 196 0.9 3.5 0.00 0.00 0.00 67 1015.8
20260507084614 44 190 0.9 2.6 0.00 0.00 0.00 66 1015.8
20260507083615 45 190 0.9 3.5 0.00 0.00 0.00 65 1015.8
20260507082615 45 188 1.7 3.5 0.00 0.00 0.00 64 1016.0
20260507081614 45 204 0.0 2.6 0.00 0.00 0.00 62 1016.1
20260507080614 45 204 0.9 2.6 0.00 0.00 0.00 61 1016.2
20260507075615 45 202 0.9 3.5 0.00 0.00 0.00 60 1016.2
20260507074614 45 225 0.9 3.5 0.00 0.00 0.00 59 1016.3
20260507073615 45 213 1.7 2.6 0.00 0.00 0.00 58 1016.3
20260507072614 45 213 0.0 2.6 0.00 0.00 0.00 58 1016.5
20260507071614 46 213 1.7 2.6 0.00 0.00 0.00 59 1016.7
20260507070614 46 212 0.0 0.9 0.00 0.00 0.00 55 1016.8
20260507065614 46 212 0.9 1.7 0.00 0.00 0.00 55 1016.9
20260507064614 46 212 0.0 0.0 0.00 0.00 0.00 54 1017.0
20260507063614 46 212 0.0 0.9 0.00 0.00 0.00 53 1017.3
20260507062614 47 212 0.0 1.7 0.00 0.00 0.00 53 1017.3
20260507061614 47 212 0.9 2.6 0.00 0.00 0.00 52 1017.5
20260507060614 47 210 0.9 2.6 0.00 0.00 0.00 53 1017.5
20260507055614 46 287 0.0 1.7 0.00 0.00 0.00 56 1017.4
20260507054614 45 307 0.0 0.0 0.00 0.00 0.00 60 1017.4
20260507053614 44 307 0.0 0.0 0.00 0.00 0.00 59 1017.5
20260507052614 44 307 0.0 0.0 0.00 0.00 0.00 63 1017.5
20260507051614 44 307 0.0 0.0 0.00 0.00 0.00 63 1017.5
20260507050614 45 307 0.0 0.0 0.00 0.00 0.00 58 1017.6
20260507045614 45 307 0.0 0.0 0.00 0.00 0.00 56 1017.6
20260507044614 44 307 0.0 0.0 0.00 0.00 0.00 54 1017.7
20260507043614 45 307 0.0 0.0 0.00 0.00 0.00 63 1017.8
20260507042614 45 307 0.0 0.0 0.00 0.00 0.00 52 1018.0
20260507041614 45 307 0.0 0.0 0.00 0.00 0.00 57 1018.0
20260507040614 45 307 0.0 0.0 0.00 0.00 0.00 54 1018.1
20260507035614 45 307 0.0 0.0 0.00 0.00 0.00 57 1018.2
20260507034614 45 307 0.0 0.0 0.00 0.00 0.00 56 1018.2
20260507033614 46 307 0.0 0.0 0.00 0.00 0.00 54 1018.1
20260507032614 47 307 0.0 0.0 0.00 0.00 0.00 49 1018.1
20260507031614 47 307 0.0 0.0 0.00 0.00 0.00 47 1018.1
20260507030614 48 307 0.0 0.0 0.00 0.00 0.00 46 1018.2
20260507025614 47 307 0.0 0.0 0.00 0.00 0.00 46 1018.1
20260507024614 48 307 0.0 0.0 0.00 0.00 0.00 52 1018.1
20260507023614 49 307 0.0 0.0 0.00 0.00 0.00 50 1018.0
20260507022613 50 307 0.0 0.0 0.00 0.00 0.00 43 1018.0
20260507021614 50 307 0.0 0.0 0.00 0.00 0.00 41 1018.0
20260507020613 51 307 0.0 0.0 0.00 0.00 0.00 42 1017.9
20260507015613 52 307 0.0 0.0 0.00 0.00 0.00 39 1017.9
20260507014613 52 307 0.0 0.0 0.00 0.00 0.00 39 1017.9
20260507013613 53 307 0.0 0.0 0.00 0.00 0.00 38 1017.9
20260507012613 55 307 0.0 0.0 0.00 0.00 0.00 37 1017.8
20260507011613 56 307 0.0 0.0 0.00 0.00 0.00 35 1017.8
20260507010613 57 307 0.0 0.9 0.00 0.00 0.00 32 1017.8
20260507005614 57 307 0.0 2.6 0.00 0.00 0.00 33 1017.9
20260507004613 58 318 0.0 3.5 0.00 0.00 0.00 32 1017.9
20260507003613 58 292 0.0 2.6 0.00 0.00 0.00 32 1017.9
20260507002613 59 236 0.9 3.5 0.00 0.00 0.00 30 1018.1
20260507001613 60 52 1.7 1.7 0.00 0.00 0.00 30 1018.1
20260507000613 59 334 0.9 0.9 0.00 0.00 0.00 34 1018.3
20260506235613 60 344 0.0 3.5 0.00 0.00 0.00 32 1018.3
20260506234613 60 288 1.7 4.3 0.00 0.00 0.00 30 1018.5
20260506233613 60 123 0.9 3.5 0.00 0.00 0.00 31 1018.5
20260506232613 60 329 0.9 2.6 0.00 0.00 0.00 31 1018.5
20260506231613 60 360 1.7 5.2 0.00 0.00 0.00 31 1018.6
20260506230613 60 269 0.0 2.6 0.00 0.00 0.00 31 1018.6
20260506225613 60 333 0.9 4.3 0.00 0.00 0.00 32 1018.7
20260506224613 60 275 1.7 3.5 0.00 0.00 0.00 31 1018.8
20260506223613 60 348 0.0 2.6 0.00 0.00 0.00 32 1018.9
20260506222613 59 123 0.0 5.2 0.00 0.00 0.00 30 1019.1
20260506221613 60 317 0.9 7.8 0.00 0.00 0.00 30 1019.3
20260506220613 60 306 0.9 5.2 0.00 0.00 0.00 31 1019.3
20260506215613 61 216 1.7 3.5 0.00 0.00 0.00 35 1019.4
20260506214613 61 138 1.7 3.5 0.00 0.00 0.00 32 1019.5
20260506213613 60 342 0.9 4.3 0.00 0.00 0.00 33 1019.5
20260506212613 60 341 0.9 7.0 0.00 0.00 0.00 31 1019.5
20260506211613 61 290 0.9 4.3 0.00 0.00 0.00 31 1019.6
20260506210613 60 205 1.7 4.3 0.00 0.00 0.00 34 1019.8
20260506205613 60 284 1.7 3.5 0.00 0.00 0.00 33 1019.8
20260506204613 60 110 0.9 5.2 0.00 0.00 0.00 33 1020.0
20260506203613 59 322 0.0 3.5 0.00 0.00 0.00 34 1019.9
20260506202613 58 257 1.7 3.5 0.00 0.00 0.00 33 1020.0
20260506201613 60 294 4.3 5.2 0.00 0.00 0.00 33 1020.5
20260506200612 60 318 0.9 7.0 0.00 0.00 0.00 31 1020.4
20260506195613 59 112 0.0 4.3 0.00 0.00 0.00 33 1020.4
20260506194613 59 295 2.6 7.0 0.00 0.00 0.00 38 1020.7
20260506193613 58 283 0.9 7.0 0.00 0.00 0.00 38 1020.7
20260506192613 58 276 0.9 6.1 0.00 0.00 0.00 34 1020.7
20260506191613 59 22 0.9 7.0 0.00 0.00 0.00 36 1020.6
20260506190612 58 287 0.9 5.2 0.00 0.00 0.00 38 1020.8
20260506185612 58 15 0.9 4.3 0.00 0.00 0.00 36 1020.8
20260506184612 58 279 0.0 4.3 0.00 0.00 0.00 35 1021.1
20260506183613 58 360 3.5 7.0 0.00 0.00 0.00 36 1021.1
20260506182612 59 247 7.8 7.8 0.00 0.00 0.00 41 1021.1
20260506181612 58 5 0.0 7.0 0.00 0.00 0.00 35 1021.4
20260506180612 56 263 2.6 7.8 0.00 0.00 0.00 38 1021.4
20260506175612 57 12 0.0 4.3 0.00 0.00 0.00 36 1021.6
20260506174612 56 182 0.9 6.1 0.00 0.00 0.00 44 1021.6
20260506173612 56 257 4.3 4.3 0.00 0.00 0.00 38 1021.9
20260506172612 56 43 0.9 3.5 0.00 0.00 0.00 40 1021.9
20260506171612 55 303 0.9 4.3 0.00 0.00 0.00 39 1022.2
20260506170612 56 305 0.9 3.5 0.00 0.00 0.00 43 1022.3
20260506165612 55 290 0.9 4.3 0.00 0.00 0.00 44 1022.4
20260506164612 55 292 0.9 7.0 0.00 0.00 0.00 38 1022.5
20260506163612 54 355 0.9 4.3 0.00 0.00 0.00 39 1022.8
20260506162612 54 287 0.0 5.2 0.00 0.00 0.00 41 1022.5
20260506161612 54 321 0.9 4.3 0.00 0.00 0.00 38 1022.4
20260506160612 54 5 1.7 3.5 0.00 0.00 0.00 41 1022.3
20260506155612 52 247 0.0 2.6 0.00 0.00 0.00 43 1021.9
20260506154612 53 336 1.7 10.4 0.00 0.00 0.00 40 1022.0